Baton Rouge, LA

2:38 PM CDT on July 24, 2017 (GMT -0500)
Baton Rouge Metro-Ryan

Weather History for KBTR - April, 2013

Change the Weather History Date:

Wednesday, April 17, 2013

  Actual Average Record
Temperature  
Mean Temperature 79 °F 68 °F  
Max Temperature 86 °F 80 °F 91 °F (2006)
Min Temperature 72 °F 57 °F 41 °F (1949)
Degree Days  
Heating Degree Days 0 1  
Month to date heating degree days 41 41  
Since 1 July heating degree days 1489 1543  
Cooling Degree Days 14 5  
Month to date cooling degree days 71 65  
Year to date cooling degree days 115 154  
Growing Degree Days 28 (Base 50)    
Moisture  
Dew Point 70 °F    
Average Humidity 79    
Maximum Humidity 93    
Minimum Humidity 65    
Precipitation  
Precipitation 0.00 in 0.15 in 4.65 in (1900)
Month to date precipitation 4.00 2.62  
Year to date precipitation 28.95 17.79  
Snow  
Snow 0.00 in - - ()
Month to date snowfall 0.0  
Since 1 July snowfall 0.0  
Snow Depth 0.00 in    
Sea Level Pressure  
Sea Level Pressure 30.00 in    
Wind  
Wind Speed 11 mph (SE)    
Max Wind Speed 20 mph    
Max Gust Speed 28 mph    
Visibility 10 miles    
Events      
T = Trace of Precipitation, MM = Missing Value Source: NWS Daily Summary

Daily Weather History Graph

Daily Weather History Graph

Search for Another Location

Airport or City:

Trip Planner

Search our weather history database for the weather conditions in past years. The results will help you decide how hot, cold, wet, or windy it might be!

Date:

Astronomy

Apr. 17, 2013 Rise Set
Actual Time 6:34 AM CDT 7:33 PM CDT
Civil Twilight 6:09 AM CDT 7:58 PM CDT
Nautical Twilight 5:40 AM CDT 8:28 PM CDT
Astronomical Twilight 5:10 AM CDT 8:58 PM CDT
Moon 11:56 AM CDT (4/17) 1:03 AM CDT (4/17)
Length of Visible Light 13h 48m
Length of Day
12h 59m
Waxing Crescent, 42% of the Moon is Illuminated
Apr 17
Waxing Crescent
Apr 18
First Quarter
Apr 25
Full
May 2
Last Quarter
May 9
New

Hourly Weather History & Observations

Time (CDT) Temp. Heat Index Dew Point Humidity Pressure Visibility Wind Dir Wind Speed Gust Speed Precip Events Conditions
12:00 AM 73.4 °F - 71.6 °F 94% 30.05 in 10.0 mi SE 9.2 mph - N/A   Overcast
12:53 AM 73.9 °F - 71.1 °F 91% 30.05 in 10.0 mi ESE 9.2 mph - N/A   Overcast
1:53 AM 73.9 °F - 70.0 °F 87% 30.03 in 10.0 mi SE 12.7 mph - N/A   Overcast
2:53 AM 73.0 °F - 70.0 °F 90% 30.02 in 10.0 mi SE 8.1 mph - N/A   Overcast
3:53 AM 73.0 °F - 70.0 °F 90% 30.00 in 10.0 mi ESE 6.9 mph - N/A   Overcast
4:53 AM 72.0 °F - 70.0 °F 93% 30.01 in 9.0 mi East 5.8 mph - N/A   Overcast
5:34 AM 71.6 °F - 69.8 °F 94% 30.02 in 8.0 mi ESE 9.2 mph - N/A   Overcast
5:53 AM 72.0 °F - 70.0 °F 93% 30.01 in 8.0 mi ESE 8.1 mph - N/A   Mostly Cloudy
6:53 AM 72.0 °F - 70.0 °F 93% 30.03 in 8.0 mi East 8.1 mph - N/A   Overcast
7:53 AM 73.0 °F - 70.0 °F 90% 30.04 in 9.0 mi East 8.1 mph - N/A   Mostly Cloudy
8:53 AM 73.4 °F - 69.8 °F 88% 30.06 in 10.0 mi ESE 5.8 mph - N/A   Mostly Cloudy
9:00 AM 73.4 °F - 69.8 °F 88% 30.06 in 10.0 mi ESE 5.8 mph - N/A   Overcast
9:53 AM 77.0 °F - 71.1 °F 82% 30.06 in 10.0 mi ESE 10.4 mph - N/A   Scattered Clouds
10:53 AM 79.0 °F - 69.1 °F 72% 30.07 in 10.0 mi SE 12.7 mph - N/A   Mostly Cloudy
11:53 AM 81.0 °F 84.1 °F 69.1 °F 67% 30.06 in 10.0 mi SE 11.5 mph 19.6 mph N/A   Mostly Cloudy
12:53 PM 82.9 °F 87.0 °F 70.0 °F 65% 30.03 in 10.0 mi SE 11.5 mph 19.6 mph N/A   Scattered Clouds
1:18 PM 82.4 °F 86.3 °F 69.8 °F 66% 30.03 in 10.0 mi SE 15.0 mph 20.7 mph N/A   Overcast
1:53 PM 82.9 °F 87.0 °F 70.0 °F 65% 30.01 in 10.0 mi ESE 15.0 mph - N/A   Overcast
2:00 PM 84.2 °F 89.6 °F 71.6 °F 66% 30.01 in 10.0 mi SE 11.5 mph - N/A   Mostly Cloudy
2:53 PM 82.9 °F 87.0 °F 70.0 °F 65% 29.99 in 10.0 mi SE 15.0 mph - N/A   Mostly Cloudy
3:53 PM 82.9 °F 88.0 °F 72.0 °F 69% 29.97 in 10.0 mi ESE 10.4 mph - N/A   Mostly Cloudy
4:53 PM 84.9 °F 90.1 °F 71.1 °F 63% 29.94 in 10.0 mi SSE 12.7 mph 23.0 mph N/A   Partly Cloudy
5:53 PM 82.9 °F 87.0 °F 70.0 °F 65% 29.93 in 10.0 mi SE 11.5 mph - N/A   Scattered Clouds
6:53 PM 81.0 °F 84.1 °F 69.1 °F 67% 29.93 in 10.0 mi SE 13.8 mph - N/A   Scattered Clouds
7:53 PM 79.0 °F - 70.0 °F 74% 29.93 in 10.0 mi SE 10.4 mph - N/A   Scattered Clouds
8:53 PM 77.0 °F - 71.1 °F 82% 29.94 in 10.0 mi ESE 8.1 mph - N/A   Scattered Clouds
9:03 PM 77.0 °F - 71.6 °F 83% 29.94 in 10.0 mi ESE 9.2 mph - N/A   Mostly Cloudy
9:53 PM 77.0 °F - 71.1 °F 82% 29.94 in 10.0 mi SE 13.8 mph 23.0 mph N/A   Overcast
10:53 PM 75.9 °F - 70.0 °F 82% 29.93 in 10.0 mi SE 13.8 mph 20.7 mph N/A   Mostly Cloudy
11:53 PM 75.9 °F - 69.1 °F 79% 29.92 in 10.0 mi SE 15.0 mph 23.0 mph N/A   Mostly Cloudy